| time (UTC) | temp C | wind direction | speed KPH | gust KPH | rain 1hr cm | rain 24hr cm | rain mn cm | humidity % | barometer mb |
| 20260507213041 | 13 | 356 | 1.6 | 12.9 | 0.00 | 0.48 | 0.00 | 34 | 1004.4 |
| 20260507211544 | 14 | 49 | 1.6 | 8.0 | 0.00 | 0.48 | 0.00 | 34 | 1004.3 |
| 20260507210040 | 14 | 270 | 1.6 | 6.4 | 0.00 | 0.48 | 0.00 | 34 | 1004.4 |
| 20260507204539 | 14 | 333 | 3.2 | 9.7 | 0.00 | 0.53 | 0.00 | 33 | 1004.4 |
| 20260507203039 | 14 | 351 | 0.0 | 6.4 | 0.00 | 0.53 | 0.00 | 36 | 1004.2 |
| 20260507201542 | 14 | 1 | 3.2 | 14.5 | 0.00 | 0.53 | 0.00 | 34 | 1004.3 |
| 20260507200039 | 14 | 321 | 3.2 | 11.3 | 0.00 | 0.53 | 0.00 | 35 | 1004.4 |
| 20260507194535 | 13 | 345 | 4.8 | 14.5 | 0.00 | 0.58 | 0.00 | 35 | 1004.5 |
| 20260507193036 | 14 | 335 | 4.8 | 11.3 | 0.00 | 0.58 | 0.00 | 36 | 1004.5 |
| 20260507191533 | 13 | 323 | 3.2 | 8.0 | 0.00 | 0.58 | 0.00 | 37 | 1004.7 |
| 20260507190032 | 13 | 355 | 3.2 | 9.7 | 0.00 | 0.58 | 0.00 | 37 | 1004.8 |
| 20260507184531 | 13 | 322 | 3.2 | 6.4 | 0.00 | 0.71 | 0.00 | 37 | 1005.0 |
| 20260507183042 | 14 | 356 | 3.2 | 11.3 | 0.00 | 0.71 | 0.00 | 35 | 1005.0 |
| 20260507181530 | 15 | 25 | 3.2 | 8.0 | 0.00 | 0.71 | 0.00 | 38 | 1005.1 |
| 20260507180032 | 14 | 308 | 1.6 | 9.7 | 0.00 | 0.71 | 0.00 | 37 | 1005.0 |
| 20260507174527 | 14 | 54 | 3.2 | 11.3 | 0.00 | 0.79 | 0.00 | 38 | 1005.0 |
| 20260507173026 | 13 | 289 | 0.0 | 6.4 | 0.00 | 0.79 | 0.00 | 41 | 1005.1 |
| 20260507171523 | 14 | 64 | 1.6 | 9.7 | 0.00 | 0.79 | 0.00 | 40 | 1005.4 |
| 20260507170023 | 13 | 86 | 1.6 | 11.3 | 0.00 | 0.79 | 0.00 | 41 | 1005.4 |
| 20260507164521 | 13 | 328 | 6.4 | 11.3 | 0.00 | 0.79 | 0.00 | 40 | 1005.6 |
| 20260507163020 | 13 | 331 | 3.2 | 11.3 | 0.00 | 0.79 | 0.00 | 43 | 1005.5 |
| 20260507161523 | 13 | 255 | 4.8 | 9.7 | 0.00 | 0.79 | 0.00 | 46 | 1005.5 |
| 20260507160036 | 13 | 339 | 1.6 | 9.7 | 0.00 | 0.79 | 0.00 | 45 | 1005.8 |
| 20260507154516 | 13 | 336 | 3.2 | 8.0 | 0.00 | 0.79 | 0.00 | 51 | 1005.9 |
| 20260507153011 | 12 | 336 | 3.2 | 12.9 | 0.00 | 0.79 | 0.00 | 53 | 1006.1 |
| 20260507151508 | 12 | 19 | 3.2 | 12.9 | 0.00 | 0.79 | 0.00 | 60 | 1006.3 |
| 20260507150006 | 11 | 278 | 1.6 | 6.4 | 0.00 | 0.79 | 0.00 | 65 | 1006.3 |
| 20260507144502 | 11 | 318 | 0.0 | 6.4 | 0.00 | 0.79 | 0.00 | 66 | 1006.4 |
| 20260507143100 | 11 | 335 | 1.6 | 6.4 | 0.00 | 0.79 | 0.00 | 66 | 1006.3 |
| 20260507141600 | 11 | 338 | 3.2 | 8.0 | 0.00 | 0.79 | 0.00 | 66 | 1006.5 |
| 20260507140106 | 11 | 330 | 3.2 | 9.7 | 0.00 | 0.79 | 0.00 | 68 | 1006.4 |
| 20260507134553 | 11 | 328 | 1.6 | 9.7 | 0.00 | 0.79 | 0.00 | 71 | 1006.7 |
| 20260507133050 | 10 | 314 | 1.6 | 12.9 | 0.00 | 0.79 | 0.00 | 73 | 1006.7 |
| 20260507131547 | 10 | 335 | 1.6 | 4.8 | 0.00 | 0.79 | 0.00 | 77 | 1006.9 |
| 20260507130054 | 10 | 315 | 1.6 | 6.4 | 0.00 | 0.79 | 0.00 | 78 | 1006.8 |
| 20260507124557 | 9 | 326 | 0.0 | 3.2 | 0.00 | 0.79 | 0.00 | 80 | 1006.7 |
| 20260507123038 | 8 | 303 | 0.0 | 3.2 | 0.00 | 0.79 | 0.00 | 82 | 1006.7 |
| 20260507121538 | 8 | 327 | 1.6 | 6.4 | 0.00 | 0.79 | 0.00 | 82 | 1006.9 |
| 20260507120039 | 8 | 17 | 0.0 | 6.4 | 0.00 | 0.79 | 0.00 | 84 | 1007.0 |
| 20260507114541 | 7 | 274 | 0.0 | 8.0 | 0.00 | 0.79 | 0.00 | 86 | 1006.8 |
| 20260507113035 | 7 | 352 | 0.0 | 4.8 | 0.00 | 0.79 | 0.00 | 87 | 1006.8 |
| 20260507111532 | 7 | 329 | 0.0 | 4.8 | 0.00 | 0.79 | 0.00 | 88 | 1006.9 |
| 20260507110036 | 6 | 349 | 0.0 | 3.2 | 0.00 | 0.79 | 0.00 | 90 | 1006.6 |
| 20260507104530 | 6 | 309 | 0.0 | 0.0 | 0.00 | 0.79 | 0.00 | 89 | 1006.4 |
| 20260507103029 | 6 | 322 | 0.0 | 3.2 | 0.00 | 0.79 | 0.00 | 89 | 1006.4 |
| 20260507101527 | 6 | 324 | 0.0 | 9.7 | 0.00 | 0.79 | 0.00 | 89 | 1006.1 |
| 20260507100026 | 6 | 320 | 1.6 | 4.8 | 0.00 | 0.79 | 0.00 | 89 | 1006.6 |
| 20260507094525 | 6 | 328 | 1.6 | 6.4 | 0.00 | 0.79 | 0.00 | 89 | 1006.1 |
| 20260507093031 | 6 | 321 | 1.6 | 6.4 | 0.00 | 0.79 | 0.00 | 89 | 1006.3 |
| 20260507091535 | 6 | 327 | 1.6 | 6.4 | 0.00 | 0.79 | 0.00 | 90 | 1006.3 |
| 20260507090021 | 6 | 328 | 0.0 | 3.2 | 0.00 | 0.79 | 0.00 | 89 | 1006.6 |
| 20260507084524 | 7 | 326 | 1.6 | 6.4 | 0.00 | 0.79 | 0.00 | 89 | 1005.8 |
| 20260507083018 | 7 | 15 | 1.6 | 9.7 | 0.00 | 0.79 | 0.00 | 90 | 1005.8 |
| 20260507081520 | 7 | 349 | 0.0 | 4.8 | 0.00 | 0.79 | 0.00 | 90 | 1005.8 |
| 20260507080015 | 7 | 317 | 0.0 | 4.8 | 0.00 | 0.79 | 0.00 | 90 | 1005.8 |
| 20260507074514 | 7 | 335 | 0.0 | 3.2 | 0.00 | 0.79 | 0.00 | 91 | 1005.9 |
| 20260507073012 | 7 | 321 | 1.6 | 6.4 | 0.00 | 0.79 | 0.00 | 91 | 1005.3 |
| 20260507071511 | 7 | 315 | 1.6 | 4.8 | 0.00 | 0.79 | 0.00 | 92 | 1005.5 |
| 20260507070012 | 7 | 322 | 1.6 | 8.0 | 0.00 | 0.79 | 0.00 | 92 | 1005.2 |
| 20260507064508 | 7 | 323 | 1.6 | 8.0 | 0.00 | 0.79 | 0.00 | 92 | 1005.3 |
| 20260507063023 | 7 | 315 | 3.2 | 9.7 | 0.00 | 0.79 | 0.00 | 93 | 1005.2 |
| 20260507061504 | 7 | 309 | 1.6 | 6.4 | 0.00 | 0.79 | 0.00 | 94 | 1005.4 |
| 20260507060002 | 8 | 319 | 0.0 | 4.8 | 0.00 | 0.79 | 0.00 | 94 | 1005.4 |
| 20260507054501 | 8 | 321 | 3.2 | 8.0 | 0.00 | 0.79 | 0.00 | 94 | 1005.3 |
| 20260507053100 | 8 | 309 | 1.6 | 6.4 | 0.00 | 0.79 | 0.00 | 95 | 1005.3 |
| 20260507051602 | 8 | 283 | 0.0 | 6.4 | 0.00 | 0.79 | 0.00 | 95 | 1005.2 |
| 20260507050101 | 8 | 330 | 1.6 | 8.0 | 0.00 | 0.79 | 0.00 | 95 | 1005.0 |
| 20260507044556 | 8 | 321 | 1.6 | 4.8 | 0.00 | 0.79 | 0.00 | 95 | 1004.9 |
| 20260507043055 | 8 | 328 | 1.6 | 4.8 | 0.00 | 0.79 | 0.00 | 95 | 1005.1 |
| 20260507041551 | 8 | 345 | 1.6 | 6.4 | 0.00 | 0.79 | 0.00 | 95 | 1005.2 |
| 20260507040047 | 8 | 323 | 3.2 | 6.4 | 0.13 | 0.79 | 0.00 | 95 | 1005.2 |
| 20260507034545 | 9 | 323 | 0.0 | 3.2 | 0.18 | 0.79 | 0.79 | 95 | 1004.9 |
| 20260507033045 | 9 | 276 | 0.0 | 4.8 | 0.20 | 0.79 | 0.79 | 95 | 1005.0 |
| 20260507031541 | 10 | 320 | 1.6 | 9.7 | 0.23 | 0.79 | 0.79 | 95 | 1005.0 |
| 20260507030041 | 10 | 316 | 3.2 | 11.3 | 0.10 | 0.66 | 0.66 | 94 | 1005.1 |
| 20260507024536 | 11 | 349 | 3.2 | 11.3 | 0.08 | 0.61 | 0.61 | 95 | 1004.7 |
| 20260507023030 | 11 | 326 | 3.2 | 8.0 | 0.23 | 0.58 | 0.58 | 95 | 1004.6 |
| 20260507021528 | 12 | 324 | 1.6 | 9.7 | 0.23 | 0.56 | 0.56 | 95 | 1004.3 |
| 20260507020031 | 12 | 314 | 1.6 | 9.7 | 0.23 | 0.56 | 0.56 | 95 | 1003.9 |
| 20260507014519 | 13 | 321 | 0.0 | 6.4 | 0.20 | 0.53 | 0.53 | 96 | 1004.0 |
| 20260507013033 | 14 | 236 | 0.0 | 1.6 | 0.03 | 0.36 | 0.36 | 96 | 1003.6 |
| 20260507011516 | 14 | 240 | 0.0 | 3.2 | 0.00 | 0.33 | 0.33 | 96 | 1003.4 |
| 20260507010015 | 14 | 236 | 0.0 | 3.2 | 0.00 | 0.33 | 0.33 | 96 | 1003.5 |
| 20260507004514 | 14 | 229 | 0.0 | 3.2 | 0.00 | 0.33 | 0.33 | 96 | 1003.4 |
| 20260507003014 | 14 | 203 | 0.0 | 3.2 | 0.00 | 0.33 | 0.33 | 96 | 1003.3 |
| 20260507001513 | 14 | 219 | 0.0 | 3.2 | 0.00 | 0.33 | 0.33 | 96 | 1003.3 |
| 20260507000015 | 14 | 169 | 0.0 | 4.8 | 0.00 | 0.33 | 0.33 | 96 | 1003.2 |
| 20260506234520 | 14 | 204 | 0.0 | 4.8 | 0.00 | 0.33 | 0.33 | 96 | 1003.0 |
| 20260506233013 | 14 | 233 | 0.0 | 3.2 | 0.00 | 0.33 | 0.33 | 96 | 1003.0 |
| 20260506231510 | 14 | 238 | 0.0 | 4.8 | 0.00 | 0.33 | 0.33 | 96 | 1003.1 |
| 20260506230009 | 14 | 259 | 0.0 | 4.8 | 0.00 | 0.33 | 0.33 | 96 | 1003.0 |
| 20260506224509 | 14 | 226 | 0.0 | 6.4 | 0.00 | 0.33 | 0.33 | 96 | 1003.0 |
| 20260506223007 | 14 | 214 | 1.6 | 6.4 | 0.00 | 0.33 | 0.33 | 96 | 1003.1 |
| 20260506221504 | 14 | 288 | 1.6 | 4.8 | 0.00 | 0.33 | 0.33 | 96 | 1003.2 |
| 20260506220010 | 14 | 153 | 1.6 | 9.7 | 0.00 | 0.33 | 0.33 | 96 | 1003.4 |
| 20260506214504 | 15 | 188 | 1.6 | 6.4 | 0.03 | 0.33 | 0.33 | 96 | 1003.3 |